This demonstration page uses our WeatherBlox Daily Observations layout. Learn more.

41.55636, -103.73856

Hourly Observations for December 27, 2015

Temp ( °F °C ) Dew Point ( °F °C ) Humidity (%) Winds ( mph kmh ) Pressure ( in mb ) Visibility ( mi km ) Precip ( " mm )
12:53 am 00:53 Clear 3 -16.1 -1 -18.3 83 83 NW 13 20 30.7 1040 10 16.0934 0 0
1:53 am 01:53 Clear 0 -17.8 -3 -19.4 87 87 NW 12 19 30.69 1039 10 16.0934 0 0
2:53 am 02:53 Clear 1 -17.2 -3 -19.4 83 83 W 8 13 30.68 1039 10 16.0934 0 0
3:53 am 03:53 Clear 0 -17.8 -4 -20 83 83 NW 9 15 30.65 1038 10 16.0934 0 0
4:53 am 04:53 Clear -3 -19.4 -8 -22.2 79 79 NNW 7 11 30.66 1038 10 16.0934 0 0
5:53 am 05:53 Clear -1 -18.3 -6 -21.1 79 79 Calm 30.7 1040 10 16.0934 0 0
6:53 am 06:53 Clear -4 -20 -9 -22.8 79 79 N 10 17 30.71 1040 10 16.0934 0 0
7:53 am 07:53 Sunny -4 -20 -9 -22.8 79 79 NNW 6 9 30.68 1039 10 16.0934 0 0
8:53 am 08:53 Sunny -1 -18.3 -5 -20.6 82 82 Calm 30.69 1039 10 16.0934 0 0
9:53 am 09:53 Sunny 0 -17.8 -5 -20.6 79 79 NNW 7 11 30.68 1039 10 16.0934 0 0
10:53 am 10:53 Sunny 7 -13.9 0 -17.8 73 73 Calm 30.63 1037 10 16.0934 0 0
11:53 am 11:53 Sunny 10 -12.2 2 -16.7 69 69 Calm 30.6 1036 10 16.0934 0 0
12:53 pm 12:53 Sunny 11 -11.7 3 -16.1 70 70 E 5 7 30.56 1035 10 16.0934 0 0
1:53 pm 13:53 Sunny 11 -11.7 3 -16.1 70 70 SE 7 11 30.53 1034 10 16.0934 0 0
2:53 pm 14:53 Sunny 10 -12.2 2 -16.7 69 69 ESE 9 15 30.53 1034 10 16.0934 0 0
3:53 pm 15:53 Sunny 10 -12.2 2 -16.7 69 69 SE 8 13 30.51 1033 10 16.0934 0 0
4:53 pm 16:53 Clear 4 -15.6 -1 -18.3 80 80 E 5 7 30.52 1033 10 16.0934 0 0
5:53 pm 17:53 Clear 2 -16.7 -3 -19.4 80 80 E 8 13 30.5 1033 10 16.0934 0 0
6:53 pm 18:53 Clear 5 -15 -1 -18.3 76 76 E 12 19 30.49 1033 10 16.0934 0 0
7:53 pm 19:53 Clear 4 -15.6 0 -17.8 83 83 E 7 11 30.48 1032 10 16.0934 0 0
8:53 pm 20:53 Clear 2 -16.7 -2 -18.9 83 83 Calm 30.45 1031 10 16.0934 0 0
9:53 pm 21:53 Clear 4 -15.6 0 -17.8 83 83 SE 9 15 30.41 1030 10 16.0934 0 0
10:53 pm 22:53 Clear 2 -16.7 -1 -18.3 88 88 ESE 12 19 30.36 1028 10 16.0934 0 0
11:53 pm 23:53 Clear 2 -16.7 -1 -18.3 88 88 ESE 10 17 30.34 1027 10 16.0934 0 0

Powered by AerisWeather